|
|
Asteroid 2012 KY41
(Preview)
Orbital elements:
2012 KY41 Earth MOID = 0.1041 AU
Epoch 2012 May 13.0 TT = JDT 2456060.5 MPC
M 253.58125 (2000.0) P Q
n 0.35015346 Peri. 147.75304 +0.95838536 -0.10311603
a 1.9935652 Node 220.92736 +0.08413727 +0.99309332
e 0.4723864 Incl. 23.97608 +0.27279741 +0.05597099
P 2.81 H 17.9...
|
Blobrana
|
0
|
|
|
|
|
Asteroid 2012 KX41
(Preview)
Orbital elements:
2012 KX41 Earth MOID = 0.0340 AU
Epoch 2012 May 13.0 TT = JDT 2456060.5 MPC
M 344.78264 (2000.0) P Q
n 0.27237696 Peri. 251.75850 +0.50613717 +0.86048680
a 2.3569795 Node 48.79074 -0.75918013 +0.47653685
e 0.6187744 Incl. 4.43720 -0.40923183 +0.18020847
P 3.62 H 24.8 G 0...
|
Blobrana
|
0
|
|
|
|
|
Asteroid 2012 KJ18
(Preview)
Orbital elements:
2012 KJ18 Earth MOID = 0.1790 AU
Epoch 2012 Mar. 14.0 TT = JDT 2456000.5 MPC
M 333.25365 (2000.0) P Q
n 0.28864706 Peri. 181.99436 +0.32081889 +0.93354311
a 2.2675557 Node 106.74641 -0.86665637 +0.35745205
e 0.4727450 Incl. 9.61323 -0.38207588 -0.02693139
P 3.41 H 19.4...
|
Blobrana
|
0
|
|
|
|
|
Asteroid 2012 KK18
(Preview)
Orbital elements:
2012 KK18 Earth MOID = 0.2880 AU
Epoch 2012 Mar. 14.0 TT = JDT 2456000.5 MPC
M 329.87451 (2000.0) P Q
n 0.20882389 Peri. 220.35002 +0.91329248 +0.32515794
a 2.8137311 Node 119.04511 -0.26220478 +0.93021134
e 0.5550938 Incl. 16.29485 -0.31168174 +0.17023275
P 4.72 H 18....
|
Blobrana
|
0
|
|
|
|
|
Asteroid 2012 KM18
(Preview)
Orbital elements:
2012 KM18 Earth MOID = 0.1699 AU
Epoch 2012 Mar. 14.0 TT = JDT 2456000.5 MPC
M 322.96052 (2000.0) P Q
n 0.46289273 Peri. 25.73444 -0.42711335 +0.90207358
a 1.6550679 Node 219.06500 -0.84563824 -0.42276758
e 0.2888230 Incl. 5.64113 -0.32010959 -0.08678038
P 2.13 H 23.6 G...
|
Blobrana
|
0
|
|
|
|
|
Asteroid 2012 KC45
(Preview)
Orbital elements:
2012 KC45 Earth MOID = 0.0049 AU
Epoch 2012 Mar. 14.0 TT = JDT 2456000.5 MPC
M 337.86536 (2000.0) P Q
n 0.77575762 Peri. 307.94940 -0.95358088 +0.26810798
a 1.1730558 Node 247.97559 -0.20832614 -0.91612570
e 0.1819970 Incl. 8.50601 -0.21744822 -0.29804666
P 1.27 H 29.4...
|
Blobrana
|
0
|
|
|
|
|
Asteroid (10611) Yanjici (1997 BB1)
(Preview)
Minor planet named after well-known Chinese scientist A minor planet that was discovered by Chinese astronomers, has been named after a well-known late Chinese scientist and educator Yan Jici, the Chinese Academy of Sciences (CAS) announced today. [url=http://www.business-standard.com/...
|
Blobrana
|
0
|
|
|
|
|
Asteroid 2012 KZ41
(Preview)
Orbital elements:
2012 KZ41 Earth MOID = 0.0095 AU
Epoch 2012 May 13.0 TT = JDT 2456060.5 MPC
M 345.33534 (2000.0) P Q
n 0.28404132 Peri. 201.43983 +0.41752023 +0.90826384
a 2.2920022 Node 93.24676 -0.82969201 +0.39321762
e 0.5994534 Incl. 1.55461 -0.37052400 +0.14295702
P 3.47 H 24.9 G 0...
|
Blobrana
|
0
|
|
|
|
|
Asteroid 2012 KO18
(Preview)
Orbital elements:
2012 KO18 Earth MOID = 0.0308 AU
Epoch 2012 Mar. 14.0 TT = JDT 2456000.5 MPC
M 323.37250 (2000.0) P Q
n 0.29628417 Peri. 94.95978 +0.72087163 +0.68986394
a 2.2284202 Node 221.44384 -0.66905544 +0.66761214
e 0.6608974 Incl. 5.77254 -0.18085603 +0.27996745
P 3.33 H 22.1 G...
|
Blobrana
|
0
|
|
|
|
|
Asteroid 2012 KP24
(Preview)
Orbital elements:
2012 KP24 Earth MOID = 0.0004 AU
Epoch 2012 Mar. 14.0 TT = JDT 2456000.5 MPC
M 287.86220 (2000.0) P Q
n 0.61175347 Peri. 230.84971 +0.43908939 +0.84946875
a 1.3743112 Node 67.57123 -0.69530571 +0.52752639
e 0.3302086 Incl. 18.45285 -0.56899075 +0.01089755
P 1.61 H 26.1...
|
Blobrana
|
1
|
|
|
|
|
Asteroid (154330) 2002 VX94
(Preview)
The 670 - 1500 metre wide asteroid 2002 VX94 will make a close pass (72.8 lunar distances, 0.1869 AU), travelling at 13.62 km/second, to the Earth-Moon system on the 26th May, 2012 @ 06:10 UT ±00:01. See more The Lunar Distance...
|
Blobrana
|
0
|
|
|
|
|
Asteroid 2012 HL8
(Preview)
Orbital elements:
2012 HL8 Earth MOID = 0.1181 AU
Epoch 2012 Apr. 3.0 TT = JDT 2456020.5 MPC
M 345.72810 (2000.0) P Q
n 0.25534542 Peri. 185.39411 -0.31796979 +0.94649838
a 2.4606547 Node 66.07514 -0.86759592 -0.26704293
e 0.5401155 Incl. 3.45586 -0.38232517 -0.18118746
P 3.86 H 23.7 G 0....
|
Blobrana
|
1
|
|
|
|
|
Asteroid 2012 KK11
(Preview)
Orbital elements:
2012 KK11 Earth MOID = 0.0586 AU
Epoch 2012 Mar. 14.0 TT = JDT 2456000.5 MPC
M 331.39690 (2000.0) P Q
n 0.41474738 Peri. 357.66709 -0.48895369 +0.86866996
a 1.7807937 Node 243.05155 -0.79887565 -0.48257174
e 0.3984533 Incl. 5.12338 -0.35031697 -0.11196880
P 2.38 H 25.1...
|
Blobrana
|
1
|
|
|
|
|
Asteroid 2012 KU12
(Preview)
Orbital elements:
2012 KU12 PHA, Earth MOID = 0.0395 AU
Epoch 2012 Mar. 14.0 TT = JDT 2456000.5 MPC
M 21.66287 (2000.0) P Q
n 0.46569066 Peri. 74.10052 -0.59782517 -0.79238841
a 1.6484320 Node 53.25175 +0.66529867 -0.57488686
e 0.4932528 Incl. 8.71073 +0.44719431 -0.20402379
P 2.12 H 21....
|
Blobrana
|
0
|
|
|
|
|
Asteroid 2012 KL11
(Preview)
Orbital elements:
2012 KL11 Earth MOID = 0.3526 AU
Epoch 2012 Mar. 14.0 TT = JDT 2456000.5 MPC
M 358.00287 (2000.0) P Q
n 0.30943253 Peri. 307.19941 -0.90767144 +0.08478264
a 2.1648380 Node 241.23374 -0.02704597 -0.98916304
e 0.4226553 Incl. 27.96257 -0.41880912 -0.11986823
P 3.19 H 21....
|
Blobrana
|
0
|
|
|